TimeHST,TemperatureF,Dew PointF,Humidity,Sea Level PressureIn,VisibilityMPH,Wind Direction,Wind SpeedMPH,Gust SpeedMPH,PrecipitationIn,Events,Conditions,WindDirDegrees,DateUTC
12:54 AM,71.1,60.1,68,30.13,10.0,NE,16.1,23.0,N/A,,Clear,50,2012-01-30 10:54:00
1:54 AM,69.1,60.1,73,30.12,10.0,Variable,4.6,-,N/A,,Clear,0,2012-01-30 11:54:00
2:54 AM,68.0,59.0,73,30.11,10.0,NE,9.2,-,N/A,,Clear,40,2012-01-30 12:54:00
3:54 AM,63.0,55.9,78,30.09,10.0,ESE,3.5,-,N/A,,Clear,120,2012-01-30 13:54:00
4:54 AM,63.0,55.9,78,30.09,10.0,Calm,Calm,-,N/A,,Clear,0,2012-01-30 14:54:00
5:54 AM,68.0,59.0,73,30.10,10.0,NE,13.8,-,N/A,,Clear,40,2012-01-30 15:54:00
6:54 AM,69.1,57.9,68,30.11,10.0,NE,16.1,-,N/A,,Clear,40,2012-01-30 16:54:00
7:54 AM,72.0,61.0,68,30.13,10.0,NE,15.0,-,N/A,,Partly Cloudy,40,2012-01-30 17:54:00
8:54 AM,75.0,61.0,62,30.13,10.0,NE,17.3,-,N/A,,Scattered Clouds,50,2012-01-30 18:54:00
9:54 AM,77.0,60.1,56,30.14,10.0,ENE,20.7,29.9,N/A,,Partly Cloudy,60,2012-01-30 19:54:00
10:54 AM,77.0,62.1,60,30.13,10.0,ENE,20.7,31.1,N/A,,Scattered Clouds,60,2012-01-30 20:54:00
11:54 AM,80.1,60.1,50,30.10,10.0,ENE,19.6,29.9,N/A,,Scattered Clouds,70,2012-01-30 21:54:00
12:54 PM,81.0,60.1,49,30.07,10.0,NE,23.0,28.8,N/A,,Scattered Clouds,50,2012-01-30 22:54:00
1:54 PM,81.0,61.0,50,30.04,10.0,ENE,24.2,35.7,N/A,,Scattered Clouds,70,2012-01-30 23:54:00
2:54 PM,78.1,61.0,56,30.03,10.0,ENE,20.7,32.2,N/A,,Partly Cloudy,70,2012-01-31 00:54:00
3:54 PM,78.1,59.0,52,30.02,10.0,ENE,18.4,31.1,N/A,,Partly Cloudy,70,2012-01-31 01:54:00
4:54 PM,77.0,60.1,56,30.01,10.0,ENE,19.6,26.5,N/A,,Partly Cloudy,70,2012-01-31 02:54:00
5:54 PM,75.0,57.9,55,30.02,10.0,ENE,16.1,24.2,N/A,,Partly Cloudy,70,2012-01-31 03:54:00
6:54 PM,73.0,59.0,61,30.04,10.0,ENE,16.1,23.0,N/A,,Clear,70,2012-01-31 04:54:00
7:54 PM,72.0,59.0,64,30.06,10.0,ENE,16.1,21.9,N/A,,Partly Cloudy,60,2012-01-31 05:54:00
8:54 PM,73.0,57.9,59,30.07,10.0,East,12.7,20.7,N/A,,Partly Cloudy,80,2012-01-31 06:54:00
9:54 PM,71.1,59.0,66,30.08,10.0,ENE,15.0,24.2,N/A,,Scattered Clouds,70,2012-01-31 07:54:00
10:54 PM,71.1,59.0,66,30.08,10.0,ENE,8.1,18.4,N/A,,Partly Cloudy,70,2012-01-31 08:54:00
11:54 PM,70.0,59.0,68,30.06,10.0,East,9.2,-,N/A,,Scattered Clouds,100,2012-01-31 09:54:00